Alturas, CA

12:02 AM PST on December 18, 2017 (GMT -0800)
Alturas Municipal

Weather History for KAAT - September, 2013

Change the Weather History Date:

Sunday, September 1, 2013

  Actual Average Record
Temperature  
Mean Temperature 65 °F 61 °F  
Max Temperature 83 °F 82 °F 98 °F (1955)
Min Temperature 47 °F 39 °F 27 °F (1999)
Degree Days  
Heating Degree Days 0 5  
Month to date heating degree days 0 5  
Since 1 July heating degree days 70 116  
Cooling Degree Days 0 1  
Month to date cooling degree days 0 1  
Year to date cooling degree days 255 152  
Growing Degree Days 15 (Base 50)    
Moisture  
Dew Point 43 °F    
Average Humidity 57    
Maximum Humidity 90    
Minimum Humidity 23    
Precipitation  
Precipitation 0.04 in 0.01 in 2.61 in (1997)
Month to date precipitation 0.04 0.01  
Year to date precipitation 5.19 9.15  
Sea Level Pressure  
Sea Level Pressure 29.93 in    
Wind  
Wind Speed 5 mph (SSE)    
Max Wind Speed 25 mph    
Max Gust Speed 31 mph    
Visibility 10 miles    
Events Rain , Thunderstorm    
T = Trace of Precipitation, MM = Missing Value Source: NWS Daily Summary

Daily Weather History Graph

Daily Weather History Graph

Search for Another Location

Airport or City:

Trip Planner

Search our weather history database for the weather conditions in past years. The results will help you decide how hot, cold, wet, or windy it might be!

Date:

Astronomy

Sep. 01, 2013 Rise Set
Actual Time 6:28 AM PDT 7:34 PM PDT
Civil Twilight 6:00 AM PDT 8:03 PM PDT
Nautical Twilight 5:26 AM PDT 8:36 PM PDT
Astronomical Twilight 4:50 AM PDT 9:12 PM PDT
Moon 2:53 AM PDT (9/1) 5:16 PM PDT (9/1)
Length of Visible Light 14h 02m
Length of Day
13h 05m
Waning Crescent, 13% of the Moon is Illuminated
Sep 1
Waning Crescent
Sep 5
New
Sep 12
First Quarter
Sep 19
Full
Sep 26
Last Quarter

Hourly Weather History & Observations

Time (PDT) Temp. Dew Point Humidity Pressure Visibility Wind Dir Wind Speed Gust Speed Precip Events Conditions
12:55 AM 54.0 °F 30.9 °F 41% 29.96 in 10.0 mi Calm Calm - N/A   Clear
1:55 AM 52.0 °F 30.0 °F 43% 29.94 in 10.0 mi Calm Calm - N/A   Clear
2:55 AM 48.9 °F 30.9 °F 50% 29.93 in 10.0 mi Calm Calm - N/A   Clear
3:55 AM 50.0 °F 32.0 °F 50% 29.91 in 10.0 mi Calm Calm - N/A   Clear
4:55 AM 48.9 °F 33.1 °F 54% 29.92 in 10.0 mi Calm Calm - N/A   Partly Cloudy
5:55 AM 52.0 °F 33.1 °F 49% 29.93 in 10.0 mi North 5.8 mph - N/A   Mostly Cloudy
6:55 AM 51.1 °F 37.0 °F 59% 29.95 in 10.0 mi Calm Calm - 0.00 in   Partly Cloudy
7:55 AM 57.0 °F 37.0 °F 47% 29.94 in 10.0 mi Calm Calm - N/A   Mostly Cloudy
8:55 AM 66.9 °F 37.0 °F 33% 29.92 in 10.0 mi NNE 3.5 mph - N/A   Scattered Clouds
9:55 AM 70.0 °F 39.0 °F 32% 29.93 in 10.0 mi Calm Calm - N/A   Mostly Cloudy
10:55 AM 75.0 °F 39.0 °F 27% 29.93 in 10.0 mi SSE 9.2 mph - N/A   Overcast
11:55 AM 77.0 °F 39.0 °F 25% 29.93 in 10.0 mi South 9.2 mph - N/A   Mostly Cloudy
12:55 PM 79.0 °F 37.9 °F 23% 29.91 in 10.0 mi SSE 8.1 mph - N/A   Overcast
1:33 PM 77.0 °F 42.8 °F 29% 30.04 in 10.0 mi SSE 10.4 mph 17.3 mph N/A Thunderstorm Overcast
1:48 PM 75.2 °F 44.6 °F 34% 30.04 in 10.0 mi SSE 12.7 mph 19.6 mph N/A   Overcast
1:55 PM 72.0 °F 50.0 °F 46% 29.94 in 10.0 mi SE 10.4 mph 19.6 mph 0.00 in Rain Light Rain
2:55 PM 78.1 °F 50.0 °F 37% 29.91 in 10.0 mi SSE 9.2 mph - 0.00 in   Scattered Clouds
3:55 PM 79.0 °F 46.9 °F 32% 29.88 in 10.0 mi SSE 10.4 mph - N/A   Clear
4:55 PM 82.9 °F 48.0 °F 29% 29.86 in 10.0 mi SE 9.2 mph - N/A   Clear
5:55 PM 81.0 °F 48.0 °F 31% 29.83 in 10.0 mi SSE 10.4 mph - N/A   Partly Cloudy
6:23 PM 77.0 °F 46.4 °F 34% 29.98 in 10.0 mi West 18.4 mph 28.8 mph N/A   Mostly Cloudy
6:55 PM 71.1 °F 52.0 °F 51% 29.89 in 10.0 mi West 12.7 mph - N/A   Mostly Cloudy
7:55 PM 69.1 °F 53.1 °F 57% 29.91 in 10.0 mi West 12.7 mph - N/A   Overcast
8:55 PM 63.0 °F 57.9 °F 84% 29.94 in 9.0 mi SE 3.5 mph - 0.01 in Rain Light Rain
9:55 PM 62.1 °F 57.9 °F 86% 29.94 in 10.0 mi SSE 3.5 mph - 0.02 in Rain Light Rain
10:55 PM 62.1 °F 59.0 °F 90% 29.92 in 10.0 mi Calm Calm - 0.00 in   Overcast
11:55 PM 62.1 °F 59.0 °F 90% 29.91 in 10.0 mi Calm Calm - N/A   Overcast